Location: Biltmore Gardens
(41.6070°N, 83.4666°W)
Time: 14:13:38
(UTC+00:00)

CBERS-1 - Pass Details

Date: 14 July 2020
Orbit: 770 x 776 km, 98.6° (Epoch: 04 August)

Event Time Altitude Azimuth Distance (km) Brightness Sun altitude
Rises 07:34:36 0° 16° (NNE) 3,265 8.7 -21.4°
Reaches altitude 10° 07:36:57 10° 20° (NNE) 2,333 7.6 -21.2°
Maximum altitude 07:42:03 65° 102° (ESE) 854 4.2 -20.8°
Enters shadow 07:44:09 35° 171° (S) 1,237 4.7 -20.6°
